La Crosse Municipal Airport La Crosse US
ICAO: KLSE
IATA: LSE
Category: Medium
Scheduled Services: Yes

Elevation: 655 ft
TransAlt. 18000 ft.

Airport Communications:
ATIS:124.95
MINNEAPOLIS CNTR:128.6
CTAF:118.45
GND:121.8
GREEN BAY RDO:122.2
TWR:118.45
UNICOM:122.95

KLSE Zoom In..

If you have problems with the map follow the link
https://www.worldairports.se/pages/airport.php?
ICAO=KLSE

Runways:

(A) RW 03 length 5199 ft width 150 ft
---- / hdg 34

(B) RW 13 length 6050 ft width 150 ft
---- / hdg 132

(C) RW 18 length 8742 ft width 150 ft
ILS 111.10 / hdg 177

(D) RW 21 length 5199 ft width 150 ft
---- / hdg 214

(E) RW 31 length 6050 ft width 150 ft
---- / hdg 312

(F) RW 36 length 8742 ft width 150 ft
---- / hdg 357

Location; KLSE
Day. 14 / Time. 10.53 Zulu
* Altimeter: 30.49
* Temperature: -09° c. -15.8°f.
* Wind from: 110° Speed 06 kn.
Dewpoint: -13° c.
Visibility: 10 Statute Miles.
Clouds: Clear (automated report).

KLSE 141053Z AUTO 11006KT 10SM CLR M09/M13 A3049 RMK AO2 SLP344 T10891128


Wind From 110°
Speed 06 kn.

 
 
jpsmedia.com for Web Design worldairports.se 2018   terms of use